IRIDIUM 143

Last updated on Sun Jun 21 2026 00:03:14 GMT+0000 (Coordinated Universal Time)

1 43258U 18030K 26171.40823396 .00000108 00000+0 31381-4 0 9994 2 43258 86.3966 289.2114 0002135 96.8149 263.3289 14.34218119430551
UTC large
Height (km)
Speed (km/s)
/
Latitude / Longitude
Inclination (degrees)
Orbital Period (minutes)
Azimuth
Elevation
Range (km)
Doppler Factor

Next 0 passes for location: London (51.5072 / 0.1276)

No passes found over London.
IRIDIUM 143